Weather History for PAEI - November, 2012

Change the Weather History Date:

Tuesday, November 6, 2012

  Actual Average Record
Temperature  
Mean Temperature -18 °F -  
Max Temperature -9 °F 14 °F 35 °F (1979)
Min Temperature -27 °F 1 °F -32 °F (1955)
Degree Days  
Heating Degree Days 83    
Moisture  
Dew Point -27 °F    
Average Humidity 77    
Maximum Humidity 91    
Minimum Humidity 70    
Precipitation  
Precipitation 0.00 in - - ()
Sea Level Pressure  
Sea Level Pressure 30.44 in    
Wind  
Wind Speed 0 mph (South)    
Max Wind Speed 4 mph    
Max Gust Speed -    
Visibility 10 miles    
Events      
Averages and records for this station are not official NWS values.
T = Trace of Precipitation, MM = Missing Value Source: NWS Daily Summary

Daily Weather History Graph

Daily Weather History Graph

Search for Another Location

Airport or City:

Trip Planner

Search our weather history database for the weather conditions in past years. The results will help you decide how hot, cold, wet, or windy it might be!

Date:

Astronomy

Nov. 06, 2012 Rise Set
Actual Time 8:53 AM AKST 4:09 PM AKST
Civil Twilight 7:56 AM AKST 5:06 PM AKST
Nautical Twilight 6:57 AM AKST 6:05 PM AKST
Astronomical Twilight 6:00 AM AKST 7:02 PM AKST
Moon 11:32 PM AKST (11/6) 2:25 PM AKST (11/6)
Length of Visible Light 9h 09m
Length of Day
7h 15m
Waning Gibbous, 51% of the Moon is Illuminated
Nov 6
Waning Gibbous
Nov 6
Last Quarter
Nov 13
New
Nov 20
First Quarter
Nov 28
Full

Hourly Weather History & Observations

Time (AKST) Temp. Windchill Dew Point Humidity Pressure Visibility Wind Dir Wind Speed Gust Speed Precip Events Conditions
12:55 AM -21.8 °F - -28.5 °F 71% 30.30 in 10.0 mi Calm Calm - N/A   Clear
1:55 AM -23.6 °F - -29.9 °F 72% 30.31 in 10.0 mi Calm Calm - N/A   Clear
2:55 AM -25.1 °F - -29.9 °F 78% 30.33 in 10.0 mi Calm Calm - N/A   Clear
3:55 AM -24.9 °F - -29.9 °F 77% 30.34 in 10.0 mi Calm Calm - N/A   Clear
4:53 AM -27.4 °F - -29.2 °F 91% 30.35 in 10.0 mi Calm Calm - N/A   Partly Cloudy
4:55 AM -27.2 °F - -29.9 °F 87% 30.36 in 10.0 mi Calm Calm - N/A   Partly Cloudy
5:55 AM -26.5 °F -38.1 °F -29.9 °F 84% 30.38 in 10.0 mi South 3.5 mph - N/A   Clear
6:55 AM -26.1 °F - -29.9 °F 82% 30.39 in 10.0 mi Calm Calm - N/A   Partly Cloudy
7:55 AM -26.9 °F - -29.9 °F 85% 30.40 in 10.0 mi Calm Calm - N/A   Partly Cloudy
8:55 AM -27.0 °F - -29.9 °F 86% 30.42 in 10.0 mi Calm Calm - N/A   Scattered Clouds
9:55 AM -25.6 °F - -29.9 °F 80% 30.43 in 10.0 mi Calm Calm - N/A   Scattered Clouds
10:55 AM -19.8 °F - -26.1 °F 73% 30.45 in 10.0 mi Calm Calm - N/A   Scattered Clouds
11:55 AM -18.2 °F - -24.3 °F 74% 30.45 in 10.0 mi Calm Calm - N/A   Scattered Clouds
12:55 PM -13.0 °F - -18.8 °F 75% 30.45 in 10.0 mi Calm Calm - N/A   Clear
1:55 PM -9.9 °F - -15.7 °F 76% 30.45 in 10.0 mi Calm Calm - N/A   Clear
2:55 PM -9.6 °F - -15.0 °F 77% 30.46 in 10.0 mi Calm Calm - N/A   Clear
3:55 PM -12.8 °F - -18.6 °F 75% 30.46 in 10.0 mi Calm Calm - N/A   Clear
4:19 PM -14.8 °F - -22.0 °F 70% 30.47 in 10.0 mi Calm Calm - N/A   Partly Cloudy
4:55 PM -16.8 °F - -22.7 °F 74% 30.48 in 10.0 mi Calm Calm - N/A   Clear
5:55 PM -18.4 °F - -24.7 °F 73% 30.49 in 10.0 mi Calm Calm - N/A   Clear
6:55 PM -21.8 °F - -28.1 °F 73% 30.51 in 10.0 mi Calm Calm - N/A   Clear
7:41 PM -22.0 °F - -27.4 °F 76% 30.52 in 10.0 mi Calm Calm - N/A   Clear
7:55 PM -22.9 °F - -29.4 °F 72% 30.52 in 10.0 mi Calm Calm - N/A   Clear
8:55 PM -23.8 °F - -29.2 °F 76% 30.54 in 10.0 mi Calm Calm - N/A   Partly Cloudy
9:55 PM -24.2 °F - -29.9 °F 74% 30.54 in 10.0 mi Calm Calm - N/A   Clear
9:56 PM -23.8 °F - -29.2 °F 76% 30.54 in 10.0 mi Calm Calm - N/A   Partly Cloudy
10:55 PM -25.2 °F - -29.9 °F 79% 30.55 in 10.0 mi Calm Calm - N/A   Clear
11:55 PM -25.4 °F - -29.9 °F 79% 30.56 in 10.0 mi Calm Calm - N/A   Clear